Index of /download

[ICO]NameLast modifiedSizeDescription

[PARENTDIR]Parent Directory  -  
[   ]ubuntu-17.10-server-amd64.iso2017-10-18 03:46 745M 
[   ]ubuntu-17.10-desktop-amd64.iso2017-10-19 01:53 1.4G 
[   ]Adobe Photoshop CS v8.0.7z2017-12-28 14:52 250M 
[   ]blangko.zip2017-12-28 14:52 80K 
[   ]bootstrap3-v1.0.1.zip2017-12-28 14:52 414K 
[   ]Dreamweaver_12_LS16.exe2017-12-28 14:52 38M 
[SND]IAIN 1.mp32017-12-28 14:52 137M 
[SND]IAIN 2.mp32017-12-28 14:52 107M 
[   ]IDM626b14.rar2017-12-28 14:53 6.9M 
[IMG]indah.png2017-12-28 14:53 1.4K 
[   ]IP PDU User Manual.pdf2017-12-28 14:53 270K 
[   ]Mindjet_mindmanager_pro_9_full_cracked.iso2017-12-28 14:53 5.4M 
[   ]Patch IDM626b14.rar2017-12-28 14:53 377K 
[   ]Photoshop CS2 (F).7z2017-12-28 14:54 330M 
[   ]PS CS5 [www.hadiblacksite.com].rar2017-12-28 14:54 120M 
[   ]ReLoaderActivatorv22 Final.ra_2017-12-28 14:54 2.7M 
[   ]android-studio-bundle-145.3360264-windows.exe2017-12-28 14:56 1.6G 
[   ]ups_eaton.pdf2017-12-28 14:56 921K 
[   ]ubuntu-12.04.5-desktop-i386.iso2017-12-28 14:56 756M 
[   ]wordpress-4.6.1-id_ID.zip2017-12-28 14:56 8.7M 
[   ]wscfeeder-1.0.0-free-edition.exe2017-12-28 14:57 96M 
[   ]xampp-win32-5.6.28-1-VC11-installer.exe2017-12-28 14:58 109M 
[   ][BAGAS31]CoreDrawX.e_e2017-12-28 14:58 376K 
[   ]VideoStudioX8_LimitedTrial_32bit.exe2017-12-28 14:59 1.3G 
[DIR]bmt/2017-12-28 15:00 -  
[DIR]TOR/2017-12-28 15:00 -  
[   ]view?usp=sharing2018-02-07 00:10 121K 
[DIR]skl20i8/2018-02-07 00:32 -  
[   ]TemplateCI.zip2018-03-05 09:50 12M 
[   ]aplikasi_seb_pc_peserta.zip2018-05-03 10:20 127M 
[   ]server_panlok.zip2018-05-03 10:49 2.6G 
[   ]SSE-PANLOK-UMPTKIN-2018.zip2018-05-17 13:23 1.8G 
[   ]Webyog SQLyog 12 [www.Hit2k.com].zip2018-05-17 16:45 33M 
[   ]DFStd.exe2018-05-18 11:31 17M 
[   ]wddm64_5_00_00_054_u_whql.exe2018-05-21 14:51 233M 
[   ]hp_LJP1100_P1560_P1600_Full_Solution-v20120831-50157036_SMO.exe2018-06-21 13:26 143M 
[   ]iain.zip2018-07-16 11:50 4.2M 
[DIR]skl2018/2018-10-02 14:52 -  
[   ]in_dex.php2018-10-02 14:52 72  
[   ]ubuntu-18.04.1.0-live-server-amd64.iso2019-01-18 15:07 812M 
[   ]Professional2019Retail.img2019-01-22 14:39 3.3G 
[DIR]sse2019/2019-04-27 23:27 -  

Apache/2.4.25 (Debian) Server at ptipd.iain-surakarta.ac.id Port 80